Time,TemperatureF,DewpointF,PressureIn,WindDirection,WindDirectionDegrees,WindSpeedMPH,WindSpeedGustMPH,Humidity,HourlyPrecipIn,Conditions,Clouds,dailyrainin,SolarRadiationWatts/m^2,SoftwareType,DateUTC
2013-02-03 00:01:00,43.0,27.0,-100.00,North,2,3.0,5.0,53,0.01,,,0.01,1.000000,,2013-02-03 08:01:00,
2013-02-03 00:11:00,43.0,27.0,-100.00,North,2,3.0,5.0,53,0.01,,,0.01,1.000000,,2013-02-03 08:11:00,
2013-02-03 00:42:00,41.0,30.0,-100.00,North,2,3.0,9.0,65,0.02,,,0.03,1.000000,,2013-02-03 08:42:00,
2013-02-03 00:52:00,41.0,30.0,-100.00,North,2,3.0,9.0,65,0.02,,,0.03,1.000000,,2013-02-03 08:52:00,
2013-02-03 01:02:00,41.0,30.0,-100.00,North,2,3.0,9.0,65,0.02,,,0.03,1.000000,,2013-02-03 09:02:00,
2013-02-03 01:11:00,41.0,30.0,-100.00,North,2,3.0,9.0,65,0.02,,,0.03,1.000000,,2013-02-03 09:11:00,
2013-02-03 01:42:00,37.0,32.0,-100.00,North,2,4.0,8.0,82,0.02,,,0.05,1.000000,,2013-02-03 09:42:00,
2013-02-03 01:52:00,37.0,32.0,-100.00,North,2,4.0,8.0,82,0.02,,,0.05,1.000000,,2013-02-03 09:52:00,
2013-02-03 02:01:00,37.0,32.0,-100.00,North,2,4.0,8.0,82,0.02,,,0.05,1.000000,,2013-02-03 10:01:00,
2013-02-03 02:11:00,37.0,32.0,-100.00,North,2,4.0,8.0,82,0.02,,,0.05,1.000000,,2013-02-03 10:11:00,
2013-02-03 02:42:00,35.0,33.0,-100.00,North,2,7.0,9.0,94,0.05,,,0.10,1.000000,,2013-02-03 10:42:00,
2013-02-03 02:52:00,35.0,33.0,-100.00,North,2,7.0,9.0,94,0.05,,,0.10,1.000000,,2013-02-03 10:52:00,
2013-02-03 03:02:00,35.0,33.0,-100.00,North,2,7.0,9.0,94,0.05,,,0.10,1.000000,,2013-02-03 11:02:00,
2013-02-03 03:11:00,35.0,33.0,-100.00,North,2,7.0,9.0,94,0.05,,,0.10,1.000000,,2013-02-03 11:11:00,
2013-02-03 03:42:00,38.0,36.0,-100.00,North,2,3.0,10.0,94,0.02,,,0.12,1.000000,,2013-02-03 11:42:00,
2013-02-03 03:52:00,38.0,36.0,-100.00,North,2,3.0,10.0,94,0.02,,,0.12,1.000000,,2013-02-03 11:52:00,
2013-02-03 04:02:00,38.0,36.0,-100.00,North,2,3.0,10.0,94,0.02,,,0.12,1.000000,,2013-02-03 12:02:00,
2013-02-03 04:11:00,38.0,36.0,-100.00,North,2,3.0,10.0,94,0.02,,,0.12,1.000000,,2013-02-03 12:11:00,
2013-02-03 04:32:00,35.0,34.0,-100.00,North,2,6.0,7.0,98,0.00,,,0.12,1.000000,,2013-02-03 12:32:00,
2013-02-03 04:42:00,35.0,34.0,-100.00,North,2,6.0,7.0,98,0.00,,,0.12,1.000000,,2013-02-03 12:42:00,
2013-02-03 04:53:00,35.0,34.0,-100.00,North,2,6.0,7.0,98,0.00,,,0.12,1.000000,,2013-02-03 12:53:00,
2013-02-03 05:03:00,35.0,34.0,-100.00,North,2,6.0,7.0,98,0.00,,,0.12,1.000000,,2013-02-03 13:03:00,
2013-02-03 05:11:00,35.0,34.0,-100.00,North,2,6.0,7.0,98,0.00,,,0.12,1.000000,,2013-02-03 13:11:00,
2013-02-03 05:42:00,35.0,35.0,-100.00,North,2,5.0,7.0,100,0.00,,,0.12,1.000000,,2013-02-03 13:42:00,
2013-02-03 05:52:00,35.0,35.0,-100.00,North,2,5.0,7.0,100,0.00,,,0.12,1.000000,,2013-02-03 13:52:00,
2013-02-03 06:02:00,35.0,35.0,-100.00,North,2,5.0,7.0,100,0.00,,,0.12,1.000000,,2013-02-03 14:02:00,
2013-02-03 06:11:00,35.0,35.0,-100.00,North,2,5.0,7.0,100,0.00,,,0.12,1.000000,,2013-02-03 14:11:00,
2013-02-03 06:42:00,37.0,36.0,-100.00,North,2,5.0,10.0,96,0.00,,,-99.99,1.000000,,2013-02-03 14:42:00,
2013-02-03 06:52:00,37.0,36.0,-100.00,North,2,5.0,10.0,96,0.00,,,-99.99,1.000000,,2013-02-03 14:52:00,
2013-02-03 07:03:00,37.0,36.0,-100.00,North,2,5.0,10.0,96,0.00,,,-99.99,1.000000,,2013-02-03 15:03:00,
2013-02-03 07:11:00,37.0,36.0,-100.00,North,2,5.0,10.0,96,0.00,,,-99.99,1.000000,,2013-02-03 15:11:00,
2013-02-03 07:33:00,36.0,35.0,-100.00,North,2,11.0,15.0,95,0.00,,,-99.99,8.000000,,2013-02-03 15:33:00,
2013-02-03 07:42:00,36.0,35.0,-100.00,North,2,11.0,15.0,95,0.00,,,-99.99,8.000000,,2013-02-03 15:42:00,
2013-02-03 07:52:00,36.0,35.0,-100.00,North,2,11.0,15.0,95,0.00,,,-99.99,8.000000,,2013-02-03 15:52:00,
2013-02-03 08:02:00,36.0,35.0,-100.00,North,2,11.0,15.0,95,0.00,,,-99.99,8.000000,,2013-02-03 16:02:00,
2013-02-03 08:11:00,36.0,35.0,-100.00,North,2,11.0,15.0,95,0.00,,,-99.99,8.000000,,2013-02-03 16:11:00,
2013-02-03 08:33:00,38.0,36.0,-100.00,North,2,15.0,20.0,91,0.00,,,0.12,230.000000,,2013-02-03 16:33:00,
2013-02-03 08:42:00,38.0,36.0,-100.00,North,2,15.0,20.0,91,0.00,,,0.12,230.000000,,2013-02-03 16:42:00,
2013-02-03 08:52:00,38.0,36.0,-100.00,North,2,15.0,20.0,91,0.00,,,0.12,230.000000,,2013-02-03 16:52:00,
2013-02-03 09:02:00,38.0,36.0,-100.00,North,2,15.0,20.0,91,0.00,,,0.12,230.000000,,2013-02-03 17:02:00,
2013-02-03 09:11:00,38.0,36.0,-100.00,North,2,15.0,20.0,91,0.00,,,0.12,230.000000,,2013-02-03 17:11:00,
2013-02-03 09:32:00,41.0,37.0,-100.00,North,2,14.0,19.0,87,0.00,,,0.12,415.000000,,2013-02-03 17:32:00,
2013-02-03 09:42:00,41.0,37.0,-100.00,North,2,14.0,19.0,87,0.00,,,0.12,415.000000,,2013-02-03 17:42:00,
2013-02-03 09:52:00,41.0,37.0,-100.00,North,2,14.0,19.0,87,0.00,,,0.12,415.000000,,2013-02-03 17:52:00,
2013-02-03 10:02:00,41.0,37.0,-100.00,North,2,14.0,19.0,87,0.00,,,0.12,415.000000,,2013-02-03 18:02:00,
2013-02-03 10:11:00,41.0,37.0,-100.00,North,2,14.0,19.0,87,0.00,,,0.12,415.000000,,2013-02-03 18:11:00,
2013-02-03 10:33:00,42.0,37.0,-100.00,North,2,13.0,19.0,81,0.00,,,0.12,499.000000,,2013-02-03 18:33:00,
2013-02-03 10:42:00,42.0,37.0,-100.00,North,2,13.0,19.0,81,0.00,,,0.12,499.000000,,2013-02-03 18:42:00,
2013-02-03 10:52:00,42.0,37.0,-100.00,North,2,13.0,19.0,81,0.00,,,0.12,499.000000,,2013-02-03 18:52:00,
2013-02-03 11:02:00,42.0,37.0,-100.00,North,2,13.0,19.0,81,0.00,,,0.12,499.000000,,2013-02-03 19:02:00,
2013-02-03 11:11:00,42.0,37.0,-100.00,North,2,13.0,19.0,81,0.00,,,0.12,499.000000,,2013-02-03 19:11:00,
2013-02-03 11:33:00,45.0,36.0,-100.00,North,1,13.0,21.0,71,0.00,,,0.12,678.000000,,2013-02-03 19:33:00,
2013-02-03 11:42:00,45.0,36.0,-100.00,North,1,13.0,21.0,71,0.00,,,0.12,678.000000,,2013-02-03 19:42:00,
2013-02-03 11:52:00,45.0,36.0,-100.00,North,1,13.0,21.0,71,0.00,,,0.12,678.000000,,2013-02-03 19:52:00,
2013-02-03 12:01:00,45.0,36.0,-100.00,North,1,13.0,21.0,71,0.00,,,0.12,678.000000,,2013-02-03 20:01:00,
2013-02-03 12:11:00,45.0,36.0,-100.00,North,1,13.0,21.0,71,0.00,,,0.12,678.000000,,2013-02-03 20:11:00,
2013-02-03 12:42:00,45.0,36.0,-100.00,North,1,15.0,22.0,70,0.00,,,0.12,758.000000,,2013-02-03 20:42:00,
2013-02-03 12:52:00,45.0,36.0,-100.00,North,1,15.0,22.0,70,0.00,,,0.12,758.000000,,2013-02-03 20:52:00,
2013-02-03 13:03:00,45.0,36.0,-100.00,North,1,15.0,22.0,70,0.00,,,0.12,758.000000,,2013-02-03 21:03:00,
2013-02-03 13:11:00,45.0,36.0,-100.00,North,1,15.0,22.0,70,0.00,,,0.12,758.000000,,2013-02-03 21:11:00,
2013-02-03 13:42:00,46.0,35.0,-100.00,North,1,12.0,21.0,65,0.00,,,0.12,743.000000,,2013-02-03 21:42:00,
2013-02-03 13:52:00,46.0,35.0,-100.00,North,1,12.0,21.0,65,0.00,,,0.12,743.000000,,2013-02-03 21:52:00,
2013-02-03 14:01:00,46.0,35.0,-100.00,North,1,12.0,21.0,65,0.00,,,0.12,743.000000,,2013-02-03 22:01:00,
2013-02-03 14:11:00,46.0,35.0,-100.00,North,1,12.0,21.0,65,0.00,,,0.12,743.000000,,2013-02-03 22:11:00,
2013-02-03 14:32:00,46.0,35.0,-100.00,North,1,11.0,17.0,64,0.00,,,0.12,654.000000,,2013-02-03 22:32:00,
2013-02-03 14:42:00,46.0,35.0,-100.00,North,1,11.0,17.0,64,0.00,,,0.12,654.000000,,2013-02-03 22:42:00,
2013-02-03 14:52:00,46.0,35.0,-100.00,North,1,11.0,17.0,64,0.00,,,0.12,654.000000,,2013-02-03 22:52:00,
2013-02-03 15:01:00,46.0,35.0,-100.00,North,1,11.0,17.0,64,0.00,,,0.12,654.000000,,2013-02-03 23:01:00,
2013-02-03 15:11:00,46.0,35.0,-100.00,North,1,11.0,17.0,64,0.00,,,0.12,654.000000,,2013-02-03 23:11:00,
2013-02-03 15:32:00,46.0,32.0,-100.00,North,1,11.0,18.0,57,0.00,,,0.12,534.000000,,2013-02-03 23:32:00,
2013-02-03 15:42:00,46.0,32.0,-100.00,North,1,11.0,18.0,57,0.00,,,0.12,534.000000,,2013-02-03 23:42:00,
2013-02-03 15:52:00,46.0,32.0,-100.00,North,1,11.0,18.0,57,0.00,,,0.12,534.000000,,2013-02-03 23:52:00,
2013-02-03 16:01:00,46.0,32.0,-100.00,North,1,11.0,18.0,57,0.00,,,0.12,534.000000,,2013-02-04 00:01:00,
2013-02-03 16:11:00,46.0,32.0,-100.00,North,1,11.0,18.0,57,0.00,,,0.12,534.000000,,2013-02-04 00:11:00,
2013-02-03 16:32:00,45.0,30.0,-100.00,North,1,11.0,17.0,56,0.00,,,0.12,373.000000,,2013-02-04 00:32:00,
2013-02-03 16:42:00,45.0,30.0,-100.00,North,1,11.0,17.0,56,0.00,,,0.12,373.000000,,2013-02-04 00:42:00,
2013-02-03 16:52:00,45.0,30.0,-100.00,North,1,11.0,17.0,56,0.00,,,0.12,373.000000,,2013-02-04 00:52:00,
2013-02-03 17:01:00,45.0,30.0,-100.00,North,1,11.0,17.0,56,0.00,,,0.12,373.000000,,2013-02-04 01:01:00,
2013-02-03 17:11:00,45.0,30.0,-100.00,North,1,11.0,17.0,56,0.00,,,0.12,373.000000,,2013-02-04 01:11:00,
2013-02-03 17:42:00,42.0,28.0,-100.00,North,1,12.0,18.0,58,0.00,,,0.12,122.000000,,2013-02-04 01:42:00,
2013-02-03 17:52:00,42.0,28.0,-100.00,North,1,12.0,18.0,58,0.00,,,0.12,122.000000,,2013-02-04 01:52:00,
2013-02-03 18:01:00,42.0,28.0,-100.00,North,1,12.0,18.0,58,0.00,,,0.12,122.000000,,2013-02-04 02:01:00,
2013-02-03 18:11:00,42.0,28.0,-100.00,North,1,12.0,18.0,58,0.00,,,0.12,122.000000,,2013-02-04 02:11:00,
2013-02-03 18:42:00,41.0,29.0,-100.00,North,2,13.0,17.0,62,0.00,,,0.12,4.000000,,2013-02-04 02:42:00,
2013-02-03 18:52:00,41.0,29.0,-100.00,North,2,13.0,17.0,62,0.00,,,0.12,4.000000,,2013-02-04 02:52:00,
2013-02-03 19:01:00,41.0,29.0,-100.00,North,2,13.0,17.0,62,0.00,,,0.12,4.000000,,2013-02-04 03:01:00,
2013-02-03 19:11:00,41.0,29.0,-100.00,North,2,13.0,17.0,62,0.00,,,0.12,4.000000,,2013-02-04 03:11:00,
2013-02-03 19:32:00,40.0,29.0,-100.00,North,2,12.0,17.0,64,0.00,,,0.12,2.000000,,2013-02-04 03:32:00,
2013-02-03 19:42:00,40.0,29.0,-100.00,North,2,12.0,17.0,64,0.00,,,0.12,2.000000,,2013-02-04 03:42:00,
2013-02-03 19:52:00,40.0,29.0,-100.00,North,2,12.0,17.0,64,0.00,,,0.12,2.000000,,2013-02-04 03:52:00,
2013-02-03 20:01:00,40.0,29.0,-100.00,North,2,12.0,17.0,64,0.00,,,0.12,2.000000,,2013-02-04 04:01:00,
2013-02-03 20:11:00,40.0,29.0,-100.00,North,2,12.0,17.0,64,0.00,,,0.12,2.000000,,2013-02-04 04:11:00,
2013-02-03 20:32:00,40.0,28.0,-100.00,North,2,11.0,16.0,61,0.00,,,0.12,2.000000,,2013-02-04 04:32:00,
2013-02-03 20:42:00,40.0,28.0,-100.00,North,2,11.0,16.0,61,0.00,,,0.12,2.000000,,2013-02-04 04:42:00,
2013-02-03 20:52:00,40.0,28.0,-100.00,North,2,11.0,16.0,61,0.00,,,0.12,2.000000,,2013-02-04 04:52:00,
2013-02-03 21:03:00,40.0,28.0,-100.00,North,2,11.0,16.0,61,0.00,,,0.12,2.000000,,2013-02-04 05:03:00,
2013-02-03 21:11:00,40.0,28.0,-100.00,North,2,11.0,16.0,61,0.00,,,0.12,2.000000,,2013-02-04 05:11:00,
2013-02-03 21:33:00,40.0,27.0,-100.00,North,2,12.0,15.0,60,0.00,,,0.12,2.000000,,2013-02-04 05:33:00,
2013-02-03 21:42:00,40.0,27.0,-100.00,North,2,12.0,15.0,60,0.00,,,0.12,2.000000,,2013-02-04 05:42:00,
2013-02-03 21:52:00,40.0,27.0,-100.00,North,2,12.0,15.0,60,0.00,,,0.12,2.000000,,2013-02-04 05:52:00,
2013-02-03 22:01:00,40.0,27.0,-100.00,North,2,12.0,15.0,60,0.00,,,0.12,2.000000,,2013-02-04 06:01:00,
2013-02-03 22:11:00,40.0,27.0,-100.00,North,2,12.0,15.0,60,0.00,,,0.12,2.000000,,2013-02-04 06:11:00,
2013-02-03 22:32:00,40.0,28.0,-100.00,North,2,14.0,17.0,61,0.00,,,0.12,2.000000,,2013-02-04 06:32:00,
2013-02-03 22:42:00,40.0,28.0,-100.00,North,2,14.0,17.0,61,0.00,,,0.12,2.000000,,2013-02-04 06:42:00,
2013-02-03 22:52:00,40.0,28.0,-100.00,North,2,14.0,17.0,61,0.00,,,0.12,2.000000,,2013-02-04 06:52:00,
2013-02-03 23:01:00,40.0,28.0,-100.00,North,2,14.0,17.0,61,0.00,,,0.12,2.000000,,2013-02-04 07:01:00,
2013-02-03 23:11:00,40.0,28.0,-100.00,North,2,14.0,17.0,61,0.00,,,0.12,2.000000,,2013-02-04 07:11:00,
2013-02-03 23:32:00,40.0,26.0,-100.00,North,2,11.0,17.0,56,0.00,,,0.11,2.000000,,2013-02-04 07:32:00,
2013-02-03 23:42:00,40.0,26.0,-100.00,North,2,11.0,17.0,56,0.00,,,0.11,2.000000,,2013-02-04 07:42:00,
2013-02-03 23:52:00,40.0,26.0,-100.00,North,2,11.0,17.0,56,0.00,,,0.11,2.000000,,2013-02-04 07:52:00,